Regional Weather Roundup
Issued by NWS Jackson, KY

Home | Current Version | Previous Version | Text Only | Print | Product List | Glossary On
Versions: 1 2 3 4 5 6 7 8 9 10 11 12 13 14 15 16 17 18 19 20 21 22 23 24 25 26 27 28 29 30 31 32 33 34 35 36 37 38 39 40 41 42 43 44 45 46 47 48 49 50
000
ASUS43 KJKL 292210
RWRJKL

EAST KENTUCKY HOURLY WEATHER ROUNDUP
NATIONAL WEATHER SERVICE JACKSON KY
600 PM EDT SUN MAR 29 2015

NOTE: "FAIR" INDICATES FEW OR NO CLOUDS BELOW 12,000 FEET WITH
NO SIGNIFICANT WEATHER AND/OR OBSTRUCTIONS TO VISIBILITY.

* THESE REPORTS ARE NOT UNDER NWS QUALITY CONTROL AND MAY NOT
  REPORT WEATHER SUCH AS PRECIPITATION AND FOG.

KYZ079-080-083-085-087-088-110-112-115-119-120-292300
...EASTERN KENTUCKY...

CITY           SKY/WX    TMP DP  RH WIND       PRES   REMARKS
JACKSON        PTSUNNY   55   4  12 VRB6      30.09F
LONDON         SUNNY     58   7  13 S13       30.09F
SOMERSET*      PTSUNNY   59  12  15 SW10      30.08F
MONTICELLO*    SUNNY     62  16  17 S9G20     30.11F
MIDDLESBORO*   SUNNY     56  14  18 S7        30.14F
HAZARD APT*    CLEAR     57   7  13 S5        30.10F
BLACK MTN*       N/A     41   9  26 S6          N/A
PIKEVILLE APT* SUNNY     54   5  14 S8        30.11F
BIG SANDY*     MOCLDY    56   4  12 SW8G20    30.11F
MOREHEAD APT*  CLOUDY    55   5  13 S13       30.07F
$$

KYZ035-036-041-042-044-050-067-078-099-292300
...CENTRAL KENTUCKY...

CITY           SKY/WX    TMP DP  RH WIND       PRES   REMARKS
MT STERLING*   PTSUNNY   54  14  20 SW10      30.05F
FLEMING/MASON* MOSUNNY   54  12  19 S13G21    30.04F
DANVILLE*      PTSUNNY   57  18  21 S12G21    30.05F
RICHMOND*      PTSUNNY   57  10  15 S16G22    30.05F
LEXINGTON      CLOUDY    56  13  18 S20G26    30.03F
FRANKFORT      CLOUDY    55  12  18 S16       30.01F
$$

KYZ091>093-OHZ055-061-077-WVZ005-015-034-035-042-292300
...SOUTHERN OHIO/WEST VIRGINIA...

CITY           SKY/WX    TMP DP  RH WIND       PRES   REMARKS
COVINGTON      CLOUDY    50  17  27 S14       29.97F
COLUMBUS       CLOUDY    46  12  25 S13       30.00F
DAYTON         LGT RAIN  47  16  29 S20G28    29.95F
WILMINGTON     CLOUDY    46  14  27 S15G24    29.98F
HUNTINGTON     CLOUDY    51   6  16 S10G18    30.08F
CHARLESTON     PTSUNNY   52   3  13 SW8       30.12F
PINEVILLE*     MOSUNNY   53   8  16 MISG      30.18F
BECKLEY        MOSUNNY   49  -1  12 S9G17     30.12F
BLUEFIELD      SUNNY     50  -4  10 SW10G23   30.14F
$$

VAZ002-007-008-TNZ017-027-036-066-071-292300
...SOUTHWEST VIRGINIA/EAST TENNESSEE...

CITY           SKY/WX    TMP DP  RH WIND       PRES   REMARKS
WISE*          PTSUNNY   50  -6  10 S9        30.14F
JONESVILLE*    MOCLDY    55   7  14 S8        30.16F
ABINGDON*      MOSUNNY   53   1  12 W10       30.16F
BRISTOL        MOSUNNY   54   9  16 S8        30.16F
KNOXVILLE      MOSUNNY   59  18  20 SW13      30.15F
OAK RIDGE      SUNNY     59  14  17 SW7G17    30.17F
CROSSVILLE     SUNNY     56  18  22 S14G21    30.15F
NASHVILLE      PTSUNNY   62  32  32 S15G28    30.10F
$$

...KEY TO REMARKS...
VSB - VISIBILITY IN MILES
WCI - WIND CHILL INDEX
HX  - HEAT INDEX

$$


USA.gov is the U.S. government's official web portal to all federal, state and local government web resources and services.